EW1923 Weather Reports


Display with metric or nautical units.
time (UTC)temp
F
wind
direction
speed
MPH
gust
MPH
rain 1hr
in
rain 24hr
in
rain mn
in
humidity
%
barometer
mb
20260504192003 73 0 0.0 0.0 0.00 0.00 0.00 40 1003.8
20260504191903 73 0 0.0 0.0 0.00 0.00 0.00 42 1003.8
20260504191803 73 0 0.0 0.0 0.00 0.00 0.00 43 1003.7
20260504191703 73 0 0.0 0.0 0.00 0.00 0.00 43 1003.7
20260504191603 73 0 0.0 0.0 0.00 0.00 0.00 41 1003.7
20260504191504 73 0 0.0 0.0 0.00 0.00 0.00 43 1003.9
20260504191304 73 0 0.0 0.0 0.00 0.00 0.00 42 1003.8
20260504191204 73 0 0.0 0.0 0.00 0.00 0.00 43 1003.8
20260504191104 73 0 0.0 0.0 0.00 0.00 0.00 43 1003.8
20260504191003 73 0 0.0 0.0 0.00 0.00 0.00 44 1003.8
20260504190904 72 0 0.0 0.0 0.00 0.00 0.00 43 1003.9
20260504190803 72 0 0.0 0.0 0.00 0.00 0.00 42 1003.9
20260504190704 72 0 0.0 0.0 0.00 0.00 0.00 42 1003.9
20260504190604 72 0 0.0 0.0 0.00 0.00 0.00 43 1003.9
20260504190505 72 0 0.0 0.0 0.00 0.00 0.00 42 1003.8
20260504190404 72 0 0.0 0.0 0.00 0.00 0.00 42 1003.8
20260504190305 72 0 0.0 0.0 0.00 0.00 0.00 42 1003.8
20260504190205 72 0 0.0 0.0 0.00 0.00 0.00 42 1003.9
20260504190004 72 0 0.0 0.0 0.00 0.00 0.00 41 1003.9
20260504185904 72 0 0.0 0.0 0.00 0.00 0.00 41 1003.9
20260504185803 72 0 0.0 0.0 0.00 0.00 0.00 43 1003.9
20260504185705 72 0 0.0 0.0 0.00 0.00 0.00 42 1004.0
20260504185603 72 0 0.0 0.0 0.00 0.00 0.00 41 1003.8
20260504185503 72 0 0.0 0.0 0.00 0.00 0.00 41 1003.8
20260504185404 72 0 0.0 0.0 0.00 0.00 0.00 42 1004.0
20260504185305 72 0 0.0 0.0 0.00 0.00 0.00 45 1004.0
20260504185203 72 0 0.0 0.0 0.00 0.00 0.00 42 1003.9
20260504185104 72 0 0.0 0.0 0.00 0.00 0.00 41 1004.0
20260504184903 72 0 0.0 0.0 0.00 0.00 0.00 43 1003.9
20260504184803 72 0 0.0 0.0 0.00 0.00 0.00 43 1003.9
20260504184703 72 0 0.0 0.0 0.00 0.00 0.00 41 1004.0
20260504184603 72 0 0.0 0.0 0.00 0.00 0.00 41 1004.0
20260504184504 71 0 0.0 0.0 0.00 0.00 0.00 41 1004.0
20260504184405 72 0 0.0 0.0 0.00 0.00 0.00 40 1004.1
20260504184305 72 0 0.0 0.0 0.00 0.00 0.00 42 1004.1
20260504184205 72 0 0.0 0.0 0.00 0.00 0.00 42 1004.1
20260504184105 72 0 0.0 0.0 0.00 0.00 0.00 41 1004.0
20260504184005 72 0 0.0 0.0 0.00 0.00 0.00 42 1004.0
20260504183904 72 0 0.0 0.0 0.00 0.00 0.00 39 1004.0
20260504183805 72 0 0.0 0.0 0.00 0.00 0.00 44 1004.1
20260504183716 72 0 0.0 0.0 0.00 0.00 0.00 44 1004.1
20260504183604 72 0 0.0 0.0 0.00 0.00 0.00 43 1004.1
20260504183405 72 0 0.0 0.0 0.00 0.00 0.00 44 1004.1
20260504183303 72 0 0.0 0.0 0.00 0.00 0.00 44 1004.2
20260504183204 72 0 0.0 0.0 0.00 0.00 0.00 43 1004.2
20260504183103 72 0 0.0 0.0 0.00 0.00 0.00 43 1004.1
20260504183004 72 0 0.0 0.0 0.00 0.00 0.00 43 1004.1
20260504182903 72 0 0.0 0.0 0.00 0.00 0.00 43 1004.2
20260504182804 72 0 0.0 0.0 0.00 0.00 0.00 44 1004.3
20260504182704 72 0 0.0 0.0 0.00 0.00 0.00 43 1004.3
20260504182604 72 0 0.0 0.0 0.00 0.00 0.00 43 1004.3
20260504182503 72 0 0.0 0.0 0.00 0.00 0.00 43 1004.3
20260504182403 72 0 0.0 0.0 0.00 0.00 0.00 45 1004.3
20260504182304 72 0 0.0 0.0 0.00 0.00 0.00 44 1004.2
20260504182204 72 0 0.0 0.0 0.00 0.00 0.00 42 1004.2
20260504182104 72 0 0.0 0.0 0.00 0.00 0.00 43 1004.4
20260504182004 72 0 0.0 0.0 0.00 0.00 0.00 42 1004.4
20260504181905 72 0 0.0 0.0 0.00 0.00 0.00 42 1004.4
20260504181805 72 0 0.0 0.0 0.00 0.00 0.00 44 1004.3
20260504181705 72 0 0.0 0.0 0.00 0.00 0.00 47 1004.3
20260504181605 72 0 0.0 0.0 0.00 0.00 0.00 47 1004.4
20260504181503 71 0 0.0 0.0 0.00 0.00 0.00 43 1004.3
20260504181404 71 0 0.0 0.0 0.00 0.00 0.00 44 1004.3
20260504181303 71 0 0.0 0.0 0.00 0.00 0.00 46 1004.4
20260504181203 71 0 0.0 0.0 0.00 0.00 0.00 45 1004.4
20260504181103 71 0 0.0 0.0 0.00 0.00 0.00 48 1004.4
20260504181003 71 0 0.0 0.0 0.00 0.00 0.00 47 1004.5
20260504180916 71 0 0.0 0.0 0.00 0.00 0.00 45 1004.5
20260504180803 70 0 0.0 0.0 0.00 0.00 0.00 45 1004.5
20260504180604 70 0 0.0 0.0 0.00 0.00 0.00 44 1004.5
20260504180503 70 0 0.0 0.0 0.00 0.00 0.00 45 1004.6
20260504180403 70 0 0.0 0.0 0.00 0.00 0.00 47 1004.6
20260504180304 70 0 0.0 0.0 0.00 0.00 0.00 44 1004.6
20260504180104 70 0 0.0 0.0 0.00 0.00 0.00 44 1004.6
20260504180004 70 0 0.0 0.0 0.00 0.00 0.00 42 1004.5
20260504175905 70 0 0.0 0.0 0.00 0.00 0.00 45 1004.5
20260504175805 70 0 0.0 0.0 0.00 0.00 0.00 45 1004.7
20260504175705 70 0 0.0 0.0 0.00 0.00 0.00 46 1004.7
20260504175504 70 0 0.0 0.0 0.00 0.00 0.00 47 1004.8
20260504175403 70 0 0.0 0.0 0.00 0.00 0.00 46 1004.8
20260504175304 70 0 0.0 0.0 0.00 0.00 0.00 47 1004.7
20260504175204 70 0 0.0 0.0 0.00 0.00 0.00 48 1004.7
20260504175103 70 0 0.0 0.0 0.00 0.00 0.00 47 1004.7
20260504175004 70 0 0.0 0.0 0.00 0.00 0.00 47 1004.7
20260504174803 70 0 0.0 0.0 0.00 0.00 0.00 47 1004.7
20260504174703 70 0 0.0 0.0 0.00 0.00 0.00 46 1004.8
20260504174603 70 0 0.0 0.0 0.00 0.00 0.00 46 1004.8
20260504174504 70 0 0.0 0.0 0.00 0.00 0.00 49 1004.8
20260504174403 69 0 0.0 0.0 0.00 0.00 0.00 49 1004.8
20260504174304 69 0 0.0 0.0 0.00 0.00 0.00 48 1004.8
20260504174204 69 0 0.0 0.0 0.00 0.00 0.00 47 1004.8
20260504174104 69 0 0.0 0.0 0.00 0.00 0.00 49 1004.8
20260504174005 69 0 0.0 0.0 0.00 0.00 0.00 48 1004.9
20260504173704 69 0 0.0 0.0 0.00 0.00 0.00 49 1004.8
20260504173605 69 0 0.0 0.0 0.00 0.00 0.00 49 1004.8
20260504173315 68 0 0.0 0.0 0.00 0.00 0.00 50 1004.8
20260504173304 68 0 0.0 0.0 0.00 0.00 0.00 48 1004.8
20260504173204 68 0 0.0 0.0 0.00 0.00 0.00 50 1004.8
20260504172905 68 0 0.0 0.0 0.00 0.00 0.00 48 1004.8
20260504172805 68 0 0.0 0.0 0.00 0.00 0.00 47 1004.8
20260504172703 68 0 0.0 0.0 0.00 0.00 0.00 48 1004.8
20260504172603 68 0 0.0 0.0 0.00 0.00 0.00 48 1004.9
20260504172503 68 0 0.0 0.0 0.00 0.00 0.00 49 1004.9
20260504172304 68 0 0.0 0.0 0.00 0.00 0.00 49 1004.9
20260504172204 68 0 0.0 0.0 0.00 0.00 0.00 49 1004.9
20260504172103 68 0 0.0 0.0 0.00 0.00 0.00 47 1004.9
20260504172004 68 0 0.0 0.0 0.00 0.00 0.00 48 1004.9
20260504171903 68 0 0.0 0.0 0.00 0.00 0.00 48 1004.9
20260504171804 68 0 0.0 0.0 0.00 0.00 0.00 49 1004.9
20260504171713 68 0 0.0 0.0 0.00 0.00 0.00 51 1004.9
20260504171515 68 0 0.0 0.0 0.00 0.00 0.00 50 1004.9
20260504171405 68 0 0.0 0.0 0.00 0.00 0.00 50 1004.9
20260504171105 68 0 0.0 0.0 0.00 0.00 0.00 50 1005.1
20260504171003 68 0 0.0 0.0 0.00 0.00 0.00 50 1005.1
20260504170905 68 0 0.0 0.0 0.00 0.00 0.00 50 1005.0
20260504170803 67 0 0.0 0.0 0.00 0.00 0.00 48 1005.0
20260504170703 67 0 0.0 0.0 0.00 0.00 0.00 50 1005.0
20260504170604 67 0 0.0 0.0 0.00 0.00 0.00 50 1005.0
20260504170503 67 0 0.0 0.0 0.00 0.00 0.00 50 1005.0
20260504170403 67 0 0.0 0.0 0.00 0.00 0.00 48 1005.0
20260504170304 67 0 0.0 0.0 0.00 0.00 0.00 47 1005.1
20260504170204 67 0 0.0 0.0 0.00 0.00 0.00 50 1005.1
20260504170104 67 0 0.0 0.0 0.00 0.00 0.00 51 1005.0
20260504160403 65 0 0.0 0.0 0.00 0.00 0.00 49 1005.6
20260504160303 65 0 0.0 0.0 0.00 0.00 0.00 51 1005.6
20260504160203 65 0 0.0 0.0 0.00 0.00 0.00 49 1005.6
20260504160105 65 0 0.0 0.0 0.00 0.00 0.00 52 1005.6
20260504151105 63 0 0.0 0.0 0.00 0.00 0.00 52 1006.1
20260504151004 63 0 0.0 0.0 0.00 0.00 0.00 53 1006.1
20260504150903 63 0 0.0 0.0 0.00 0.00 0.00 53 1006.0
20260504150804 63 0 0.0 0.0 0.00 0.00 0.00 51 1006.0
20260504150705 63 0 0.0 0.0 0.00 0.00 0.00 53 1006.1
20260504150605 63 0 0.0 0.0 0.00 0.00 0.00 52 1006.1
20260504150504 63 0 0.0 0.0 0.00 0.00 0.00 52 1006.1
20260504150303 63 0 0.0 0.0 0.00 0.00 0.00 52 1006.2
20260504150208 62 0 0.0 0.0 0.00 0.00 0.00 52 1006.1
20260504150103 62 0 0.0 0.0 0.00 0.00 0.00 54 1006.1
20260504141314 61 0 0.0 0.0 0.00 0.00 0.00 54 1006.0
20260504141203 61 0 0.0 0.0 0.00 0.00 0.00 53 1006.0
20260504141004 60 0 0.0 0.0 0.00 0.00 0.00 53 1006.1
20260504140903 60 0 0.0 0.0 0.00 0.00 0.00 53 1006.1
20260504140805 60 0 0.0 0.0 0.00 0.00 0.00 53 1006.1
20260504140605 60 0 0.0 0.0 0.00 0.00 0.00 54 1006.1
20260504140503 60 0 0.0 0.0 0.00 0.00 0.00 53 1006.1
20260504140404 60 0 0.0 0.0 0.00 0.00 0.00 52 1006.1
20260504140304 60 0 0.0 0.0 0.00 0.00 0.00 53 1006.1
20260504140205 60 0 0.0 0.0 0.00 0.00 0.00 52 1006.2
20260504140103 60 0 0.0 0.0 0.00 0.00 0.00 52 1006.2
20260504130804 58 0 0.0 0.0 0.00 0.00 0.00 53 1006.3
20260504130703 58 0 0.0 0.0 0.00 0.00 0.00 54 1006.3
20260504130603 58 0 0.0 0.0 0.00 0.00 0.00 53 1006.4
20260504130503 58 0 0.0 0.0 0.00 0.00 0.00 53 1006.4
20260504130417 58 0 0.0 0.0 0.00 0.00 0.00 53 1006.3
20260504130403 58 0 0.0 0.0 0.00 0.00 0.00 52 1006.3
20260504130303 58 0 0.0 0.0 0.00 0.00 0.00 53 1006.3
20260504120305 54 0 0.0 0.0 0.00 0.00 0.00 56 1006.4
20260504120103 54 0 0.0 0.0 0.00 0.00 0.00 57 1006.4
20260504110703 52 0 0.0 0.0 0.00 0.00 0.00 58 1006.5
20260504110604 52 0 0.0 0.0 0.00 0.00 0.00 58 1006.5
20260504110503 52 0 0.0 0.0 0.00 0.00 0.00 58 1006.4
20260504110304 52 0 0.0 0.0 0.00 0.00 0.00 58 1006.4
20260504110204 52 0 0.0 0.0 0.00 0.00 0.00 58 1006.4
20260504110103 52 0 0.0 0.0 0.00 0.00 0.00 58 1006.4
20260504100604 52 0 0.0 0.0 0.00 0.00 0.00 57 1006.1
20260504100503 52 0 0.0 0.0 0.00 0.00 0.00 57 1006.1
20260504100403 52 0 0.0 0.0 0.00 0.00 0.00 57 1006.1
20260504100305 52 0 0.0 0.0 0.00 0.00 0.00 57 1006.1
20260504100203 52 0 0.0 0.0 0.00 0.00 0.00 57 1006.2
20260504100103 52 0 0.0 0.0 0.00 0.00 0.00 56 1006.2
20260504082005 50 0 0.0 0.0 0.00 0.00 0.00 58 1006.9
20260504081905 50 0 0.0 0.0 0.00 0.00 0.00 58 1006.9
20260504081804 50 0 0.0 0.0 0.00 0.00 0.00 58 1007.0
20260504081705 50 0 0.0 0.0 0.00 0.00 0.00 58 1007.0
20260504081604 50 0 0.0 0.0 0.00 0.00 0.00 58 1007.0
20260504081505 50 0 0.0 0.0 0.00 0.00 0.00 58 1007.0
20260504081305 50 0 0.0 0.0 0.00 0.00 0.00 58 1006.9
20260504081204 50 0 0.0 0.0 0.00 0.00 0.00 58 1006.9
20260504081103 50 0 0.0 0.0 0.00 0.00 0.00 58 1007.0
20260504081004 50 0 0.0 0.0 0.00 0.00 0.00 58 1007.0
20260504080903 50 0 0.0 0.0 0.00 0.00 0.00 58 1007.0
20260504080803 50 0 0.0 0.0 0.00 0.00 0.00 58 1007.0
20260504080704 50 0 0.0 0.0 0.00 0.00 0.00 58 1007.0
20260504080604 50 0 0.0 0.0 0.00 0.00 0.00 58 1007.0
20260504080403 50 0 0.0 0.0 0.00 0.00 0.00 58 1007.0
20260504080305 50 0 0.0 0.0 0.00 0.00 0.00 58 1007.0
20260504080204 50 0 0.0 0.0 0.00 0.00 0.00 58 1007.0
20260504080105 50 0 0.0 0.0 0.00 0.00 0.00 58 1007.1
20260504070404 49 0 0.0 0.0 0.00 0.00 0.00 59 1007.7
20260504070305 49 0 0.0 0.0 0.00 0.00 0.00 59 1007.7
20260504070204 49 0 0.0 0.0 0.00 0.00 0.00 59 1007.8
20260504070105 49 0 0.0 0.0 0.00 0.00 0.00 59 1007.7
20260504060204 50 0 0.0 0.0 0.00 0.00 0.00 58 1008.1
20260504050705 51 0 0.0 0.0 0.00 0.00 0.00 55 1008.5
20260504050604 51 0 0.0 0.0 0.00 0.00 0.00 56 1008.5
20260504050403 51 0 0.0 0.0 0.00 0.00 0.00 55 1008.5
20260504050303 51 0 0.0 0.0 0.00 0.00 0.00 56 1008.4
20260504050205 51 0 0.0 0.0 0.00 0.00 0.00 56 1008.4
20260504050103 51 0 0.0 0.0 0.00 0.00 0.00 55 1008.4
20260504045804 51 0 0.0 0.0 0.00 0.00 0.00 56 1008.5
20260504045703 51 0 0.0 0.0 0.00 0.00 0.00 56 1008.4
20260504045603 51 0 0.0 0.0 0.00 0.00 0.00 55 1008.4
20260504045504 52 0 0.0 0.0 0.00 0.00 0.00 55 1008.4
20260504045304 52 0 0.0 0.0 0.00 0.00 0.00 55 1008.4
20260504045203 52 0 0.0 0.0 0.00 0.00 0.00 55 1008.4
20260504045005 52 0 0.0 0.0 0.00 0.00 0.00 56 1008.4
20260504044905 52 0 0.0 0.0 0.00 0.00 0.00 55 1008.4
20260504044804 52 0 0.0 0.0 0.00 0.00 0.00 55 1008.4
20260504044704 52 0 0.0 0.0 0.00 0.00 0.00 55 1008.4
20260504044605 52 0 0.0 0.0 0.00 0.00 0.00 55 1008.4
20260504044504 52 0 0.0 0.0 0.00 0.00 0.00 55 1008.4
20260504044404 52 0 0.0 0.0 0.00 0.00 0.00 55 1008.3
20260504044303 52 0 0.0 0.0 0.00 0.00 0.00 55 1008.3
20260504044205 52 0 0.0 0.0 0.00 0.00 0.00 54 1008.2
20260504044104 52 0 0.0 0.0 0.00 0.00 0.00 55 1008.2
20260504044005 52 0 0.0 0.0 0.00 0.00 0.00 54 1008.3
20260504043904 52 0 0.0 0.0 0.00 0.00 0.00 54 1008.3
20260504043803 52 0 0.0 0.0 0.00 0.00 0.00 54 1008.3
20260504043604 52 0 0.0 0.0 0.00 0.00 0.00 55 1008.3
20260504043503 52 0 0.0 0.0 0.00 0.00 0.00 54 1008.3
20260504043404 52 0 0.0 0.0 0.00 0.00 0.00 55 1008.3
20260504043303 52 0 0.0 0.0 0.00 0.00 0.00 54 1008.3
20260504043004 52 0 0.0 0.0 0.00 0.00 0.00 54 1008.3
20260504042903 52 0 0.0 0.0 0.00 0.00 0.00 54 1008.3
20260504042804 52 0 0.0 0.0 0.00 0.00 0.00 54 1008.3
20260504042704 52 0 0.0 0.0 0.00 0.00 0.00 54 1008.3
20260504042503 52 0 0.0 0.0 0.00 0.00 0.00 53 1008.3
20260504042403 52 0 0.0 0.0 0.00 0.00 0.00 53 1008.2
20260504042304 52 0 0.0 0.0 0.00 0.00 0.00 53 1008.2
20260504042103 53 0 0.0 0.0 0.00 0.00 0.00 53 1008.3
20260504042004 53 0 0.0 0.0 0.00 0.00 0.00 53 1008.3
20260504041904 53 0 0.0 0.0 0.00 0.00 0.00 53 1008.3
20260504041716 53 0 0.0 0.0 0.00 0.00 0.00 53 1008.3
20260504041605 53 0 0.0 0.0 0.00 0.00 0.00 53 1008.3
20260504041514 53 0 0.0 0.0 0.00 0.00 0.00 53 1008.3
20260504041405 53 0 0.0 0.0 0.00 0.00 0.00 52 1008.3
20260504041204 53 0 0.0 0.0 0.00 0.00 0.00 52 1008.3
20260504041103 53 0 0.0 0.0 0.00 0.00 0.00 52 1008.3
20260504041005 53 0 0.0 0.0 0.00 0.00 0.00 52 1008.3
20260504040904 53 0 0.0 0.0 0.00 0.00 0.00 51 1008.3
20260504040805 53 0 0.0 0.0 0.00 0.00 0.00 51 1008.2
20260504040703 53 0 0.0 0.0 0.00 0.00 0.00 52 1008.2
20260504040603 53 0 0.0 0.0 0.00 0.00 0.00 51 1008.3
20260504040514 53 0 0.0 0.0 0.00 0.00 0.00 51 1008.3
20260504040204 53 0 0.0 0.0 0.00 0.00 0.00 51 1008.3
20260504040104 53 0 0.0 0.0 0.00 0.00 0.00 51 1008.3
20260504040005 53 0 0.0 0.0 0.00 0.00 0.00 51 1008.3
20260504035916 53 0 0.0 0.0 0.00 0.00 0.00 52 1008.3
20260504035805 53 0 0.0 0.0 0.00 0.00 0.00 51 1008.4
20260504035713 53 0 0.0 0.0 0.00 0.00 0.00 51 1008.4
20260504035604 54 0 0.0 0.0 0.00 0.00 0.00 51 1008.3
20260504035404 54 0 0.0 0.0 0.00 0.00 0.00 51 1008.4
20260504035305 54 0 0.0 0.0 0.00 0.00 0.00 51 1008.3
20260504035204 54 0 0.0 0.0 0.00 0.00 0.00 51 1008.3
20260504035103 54 0 0.0 0.0 0.00 0.00 0.00 51 1008.4
20260504035003 54 0 0.0 0.0 0.00 0.00 0.00 51 1008.4
20260504034903 54 0 0.0 0.0 0.00 0.00 0.00 50 1008.4
20260504034703 54 0 0.0 0.0 0.00 0.00 0.00 50 1008.4
20260504034603 54 0 0.0 0.0 0.00 0.00 0.00 50 1008.3
20260504034503 54 0 0.0 0.0 0.00 0.00 0.00 50 1008.4
20260504034403 54 0 0.0 0.0 0.00 0.00 0.00 50 1008.4
20260504034303 54 0 0.0 0.0 0.00 0.00 0.00 50 1008.4
20260504034203 54 0 0.0 0.0 0.00 0.00 0.00 50 1008.4
20260504034104 54 0 0.0 0.0 0.00 0.00 0.00 50 1008.4
20260504034004 54 0 0.0 0.0 0.00 0.00 0.00 50 1008.4
20260504033904 54 0 0.0 0.0 0.00 0.00 0.00 50 1008.4
20260504033803 54 0 0.0 0.0 0.00 0.00 0.00 49 1008.4
20260504033604 54 0 0.0 0.0 0.00 0.00 0.00 50 1008.4
20260504033504 54 0 0.0 0.0 0.00 0.00 0.00 49 1008.4
20260504033405 54 0 0.0 0.0 0.00 0.00 0.00 49 1008.4
20260504033305 54 0 0.0 0.0 0.00 0.00 0.00 49 1008.4
20260504033203 55 0 0.0 0.0 0.00 0.00 0.00 49 1008.4
20260504033004 55 0 0.0 0.0 0.00 0.00 0.00 49 1008.4
20260504032905 55 0 0.0 0.0 0.00 0.00 0.00 49 1008.4
20260504032803 55 0 0.0 0.0 0.00 0.00 0.00 49 1008.4
20260504032703 55 0 0.0 0.0 0.00 0.00 0.00 49 1008.4
20260504032603 55 0 0.0 0.0 0.00 0.00 0.00 49 1008.4
20260504032504 55 0 0.0 0.0 0.00 0.00 0.00 49 1008.4
20260504032203 55 0 0.0 0.0 0.00 0.00 0.00 49 1008.4
20260504032104 55 0 0.0 0.0 0.00 0.00 0.00 49 1008.4
20260504032004 55 0 0.0 0.0 0.00 0.00 0.00 49 1008.4
20260504031904 55 0 0.0 0.0 0.00 0.00 0.00 49 1008.4
20260504031804 55 0 0.0 0.0 0.00 0.00 0.00 48 1008.4
20260504031605 55 0 0.0 0.0 0.00 0.00 0.00 49 1008.4
20260504031505 55 0 0.0 0.0 0.00 0.00 0.00 49 1008.4
20260504031405 55 0 0.0 0.0 0.00 0.00 0.00 48 1008.4
20260504031303 55 0 0.0 0.0 0.00 0.00 0.00 48 1008.4
20260504031215 55 0 0.0 0.0 0.00 0.00 0.00 48 1008.4
20260504031104 55 0 0.0 0.0 0.00 0.00 0.00 49 1008.4
20260504030903 55 0 0.0 0.0 0.00 0.00 0.00 48 1008.4
20260504030803 55 0 0.0 0.0 0.00 0.00 0.00 48 1008.4
20260504030705 55 0 0.0 0.0 0.00 0.00 0.00 48 1008.3
20260504030603 55 0 0.0 0.0 0.00 0.00 0.00 49 1008.4
20260504030503 55 0 0.0 0.0 0.00 0.00 0.00 49 1008.4
20260504030403 55 0 0.0 0.0 0.00 0.00 0.00 48 1008.4
20260504030303 55 0 0.0 0.0 0.00 0.00 0.00 48 1008.4
20260504030216 55 0 0.0 0.0 0.00 0.00 0.00 48 1008.5
20260504025903 55 0 0.0 0.0 0.00 0.00 0.00 49 1008.4
20260504025804 55 0 0.0 0.0 0.00 0.00 0.00 49 1008.4
20260504025704 55 0 0.0 0.0 0.00 0.00 0.00 49 1008.4
20260504025604 55 0 0.0 0.0 0.00 0.00 0.00 49 1008.3
20260504025504 55 0 0.0 0.0 0.00 0.00 0.00 49 1008.3
20260504025404 55 0 0.0 0.0 0.00 0.00 0.00 49 1008.4
20260504025304 55 0 0.0 0.0 0.00 0.00 0.00 49 1008.4
20260504025105 55 0 0.0 0.0 0.00 0.00 0.00 48 1008.5
20260504025004 55 0 0.0 0.0 0.00 0.00 0.00 49 1008.5
20260504024803 55 0 0.0 0.0 0.00 0.00 0.00 49 1008.5
20260504024703 55 0 0.0 0.0 0.00 0.00 0.00 49 1008.5
20260504024605 55 0 0.0 0.0 0.00 0.00 0.00 49 1008.5
20260504024405 55 0 0.0 0.0 0.00 0.00 0.00 49 1008.5
20260504024304 55 0 0.0 0.0 0.00 0.00 0.00 49 1008.4
20260504024203 55 0 0.0 0.0 0.00 0.00 0.00 49 1008.4
20260504024104 55 0 0.0 0.0 0.00 0.00 0.00 49 1008.5
20260504024005 55 0 0.0 0.0 0.00 0.00 0.00 49 1008.5
20260504023904 55 0 0.0 0.0 0.00 0.00 0.00 49 1008.6
20260504023803 55 0 0.0 0.0 0.00 0.00 0.00 49 1008.4
20260504023704 55 0 0.0 0.0 0.00 0.00 0.00 50 1008.4
20260504023604 55 0 0.0 0.0 0.00 0.00 0.00 49 1008.6
20260504023504 55 0 0.0 0.0 0.00 0.00 0.00 49 1008.6
20260504023404 55 0 0.0 0.0 0.00 0.00 0.00 49 1008.6
20260504023304 55 0 0.0 0.0 0.00 0.00 0.00 49 1008.7
20260504023205 55 0 0.0 0.0 0.00 0.00 0.00 49 1008.7
20260504023117 55 0 0.0 0.0 0.00 0.00 0.00 49 1008.6
20260504023105 55 0 0.0 0.0 0.00 0.00 0.00 50 1008.6
20260504023004 55 0 0.0 0.0 0.00 0.00 0.00 49 1008.7
20260504022805 55 0 0.0 0.0 0.00 0.00 0.00 49 1008.7
20260504022703 55 0 0.0 0.0 0.00 0.00 0.00 49 1008.7
20260504022604 55 0 0.0 0.0 0.00 0.00 0.00 51 1008.7
20260504022504 55 0 0.0 0.0 0.00 0.00 0.00 49 1008.7
20260504022404 55 0 0.0 0.0 0.00 0.00 0.00 50 1008.7
20260504022304 55 0 0.0 0.0 0.00 0.00 0.00 50 1008.7
20260504022104 55 0 0.0 0.0 0.00 0.00 0.00 49 1008.7
20260504022004 55 0 0.0 0.0 0.00 0.00 0.00 50 1008.6
20260504021904 55 0 0.0 0.0 0.00 0.00 0.00 49 1008.6
20260504021804 54 0 0.0 0.0 0.00 0.00 0.00 50 1008.7
20260504021703 54 0 0.0 0.0 0.00 0.00 0.00 50 1008.6
20260504021605 54 0 0.0 0.0 0.00 0.00 0.00 50 1008.6
20260504021504 54 0 0.0 0.0 0.00 0.00 0.00 50 1008.6
20260504021404 54 0 0.0 0.0 0.00 0.00 0.00 50 1008.6
20260504021304 54 0 0.0 0.0 0.00 0.00 0.00 50 1008.7
20260504021205 54 0 0.0 0.0 0.00 0.00 0.00 51 1008.7
20260504021105 54 0 0.0 0.0 0.00 0.00 0.00 51 1008.7
20260504021004 54 0 0.0 0.0 0.00 0.00 0.00 50 1008.7
20260504020905 54 0 0.0 0.0 0.00 0.00 0.00 50 1008.7
20260504020803 54 0 0.0 0.0 0.00 0.00 0.00 51 1008.7
20260504020703 54 0 0.0 0.0 0.00 0.00 0.00 51 1008.7
20260504020605 54 0 0.0 0.0 0.00 0.00 0.00 50 1008.7
20260504020504 54 0 0.0 0.0 0.00 0.00 0.00 51 1008.7
20260504020414 54 0 0.0 0.0 0.00 0.00 0.00 51 1008.7
20260504020403 54 0 0.0 0.0 0.00 0.00 0.00 51 1008.6
20260504020103 54 0 0.0 0.0 0.00 0.00 0.00 51 1008.6
20260504020003 54 0 0.0 0.0 0.00 0.00 0.00 51 1008.7
20260504015703 54 0 0.0 0.0 0.00 0.00 0.00 51 1008.7
20260504015604 54 0 0.0 0.0 0.00 0.00 0.00 51 1008.7
20260504015505 54 0 0.0 0.0 0.00 0.00 0.00 52 1008.6
20260504015305 54 0 0.0 0.0 0.00 0.00 0.00 51 1008.7
20260504015205 54 0 0.0 0.0 0.00 0.00 0.00 52 1008.7
20260504015104 54 0 0.0 0.0 0.00 0.00 0.00 53 1008.7
20260504015014 54 0 0.0 0.0 0.00 0.00 0.00 53 1008.7
20260504015004 54 0 0.0 0.0 0.00 0.00 0.00 52 1008.7
20260504014904 54 0 0.0 0.0 0.00 0.00 0.00 51 1008.7
20260504014605 54 0 0.0 0.0 0.00 0.00 0.00 52 1008.7
20260504014503 54 0 0.0 0.0 0.00 0.00 0.00 52 1008.7
20260504014405 54 0 0.0 0.0 0.00 0.00 0.00 51 1008.7
20260504014203 54 0 0.0 0.0 0.00 0.00 0.00 52 1008.7
20260504014103 54 0 0.0 0.0 0.00 0.00 0.00 52 1008.7
20260504014003 54 0 0.0 0.0 0.00 0.00 0.00 52 1008.7
20260504013903 54 0 0.0 0.0 0.00 0.00 0.00 52 1008.7
20260504013805 54 0 0.0 0.0 0.00 0.00 0.00 52 1008.7
20260504013703 54 0 0.0 0.0 0.00 0.00 0.00 52 1008.8
20260504013603 54 0 0.0 0.0 0.00 0.00 0.00 51 1008.7
20260504013503 54 0 0.0 0.0 0.00 0.00 0.00 52 1008.7
20260504013403 54 0 0.0 0.0 0.00 0.00 0.00 52 1008.7
20260504013303 54 0 0.0 0.0 0.00 0.00 0.00 52 1008.7
20260504013205 54 0 0.0 0.0 0.00 0.00 0.00 52 1008.7
20260504013104 54 0 0.0 0.0 0.00 0.00 0.00 52 1008.6
20260504013003 54 0 0.0 0.0 0.00 0.00 0.00 51 1008.6
20260504012905 54 0 0.0 0.0 0.00 0.00 0.00 51 1008.7
20260504012804 53 0 0.0 0.0 0.00 0.00 0.00 52 1008.7
20260504012717 53 0 0.0 0.0 0.00 0.00 0.00 51 1008.7
20260504012703 53 0 0.0 0.0 0.00 0.00 0.00 52 1008.7
20260504012605 53 0 0.0 0.0 0.00 0.00 0.00 52 1008.7
20260504012304 53 0 0.0 0.0 0.00 0.00 0.00 52 1008.7
20260504012203 53 0 0.0 0.0 0.00 0.00 0.00 52 1008.7
20260504012103 53 0 0.0 0.0 0.00 0.00 0.00 52 1008.7
20260504012003 53 0 0.0 0.0 0.00 0.00 0.00 51 1008.7
20260504011903 53 0 0.0 0.0 0.00 0.00 0.00 52 1008.8
20260504011803 53 0 0.0 0.0 0.00 0.00 0.00 52 1008.7
20260504011704 53 0 0.0 0.0 0.00 0.00 0.00 52 1008.7
20260504011603 53 0 0.0 0.0 0.00 0.00 0.00 53 1008.7
20260504011503 53 0 0.0 0.0 0.00 0.00 0.00 52 1008.7
20260504011403 53 0 0.0 0.0 0.00 0.00 0.00 52 1008.7
20260504011303 53 0 0.0 0.0 0.00 0.00 0.00 52 1008.7
20260504011103 53 0 0.0 0.0 0.00 0.00 0.00 52 1008.7
20260504011004 53 0 0.0 0.0 0.00 0.00 0.00 52 1008.7
20260504010904 53 0 0.0 0.0 0.00 0.00 0.00 52 1008.7
20260504010805 53 0 0.0 0.0 0.00 0.00 0.00 52 1008.7
20260504010704 53 0 0.0 0.0 0.00 0.00 0.00 52 1008.7
20260504010603 53 0 0.0 0.0 0.00 0.00 0.00 52 1008.7
20260504010504 53 0 0.0 0.0 0.00 0.00 0.00 52 1008.7
20260504010404 53 0 0.0 0.0 0.00 0.00 0.00 53 1008.7
20260504010303 53 0 0.0 0.0 0.00 0.00 0.00 53 1008.7
20260504010204 53 0 0.0 0.0 0.00 0.00 0.00 53 1008.7
20260504010105 53 0 0.0 0.0 0.00 0.00 0.00 54 1008.7
20260504005904 53 0 0.0 0.0 0.00 0.00 0.00 53 1008.6
20260504005805 53 0 0.0 0.0 0.00 0.00 0.00 53 1008.6
20260504005703 53 0 0.0 0.0 0.00 0.00 0.00 53 1008.6
20260504005603 53 0 0.0 0.0 0.00 0.00 0.00 54 1008.6
20260504005503 53 0 0.0 0.0 0.00 0.00 0.00 53 1008.7
20260504005404 53 0 0.0 0.0 0.00 0.00 0.00 54 1008.7
20260504005204 53 0 0.0 0.0 0.00 0.00 0.00 55 1008.7
20260504005103 53 0 0.0 0.0 0.00 0.00 0.00 55 1008.7
20260504005004 53 0 0.0 0.0 0.00 0.00 0.00 55 1008.7
20260504004903 53 0 0.0 0.0 0.00 0.00 0.00 55 1008.7
20260504004804 53 0 0.0 0.0 0.00 0.00 0.00 55 1008.7
20260504004704 53 0 0.0 0.0 0.00 0.00 0.00 55 1008.6
20260504004604 53 0 0.0 0.0 0.00 0.00 0.00 55 1008.6
20260504004505 53 0 0.0 0.0 0.00 0.00 0.00 55 1008.7
20260504004405 52 0 0.0 0.0 0.00 0.00 0.00 55 1008.7
20260504004305 52 0 0.0 0.0 0.00 0.00 0.00 55 1008.7
20260504004105 52 0 0.0 0.0 0.00 0.00 0.00 56 1008.7
20260504004009 52 0 0.0 0.0 0.00 0.00 0.00 56 1008.6
20260504003805 52 0 0.0 0.0 0.00 0.00 0.00 56 1008.7
20260504003704 52 0 0.0 0.0 0.00 0.00 0.00 57 1008.7
20260504003604 52 0 0.0 0.0 0.00 0.00 0.00 57 1008.7
20260504003503 52 0 0.0 0.0 0.00 0.00 0.00 57 1008.7
20260504003403 52 0 0.0 0.0 0.00 0.00 0.00 56 1008.6
20260504003303 52 0 0.0 0.0 0.00 0.00 0.00 58 1008.6
20260504003203 52 0 0.0 0.0 0.00 0.00 0.00 57 1008.7
20260504003104 52 0 0.0 0.0 0.00 0.00 0.00 58 1008.7
20260504003004 52 0 0.0 0.0 0.00 0.00 0.00 58 1008.7
20260504002903 52 0 0.0 0.0 0.00 0.00 0.00 58 1008.6
20260504002804 52 0 0.0 0.0 0.00 0.00 0.00 58 1008.6
20260504002704 52 0 0.0 0.0 0.00 0.00 0.00 58 1008.7
20260504002605 52 0 0.0 0.0 0.00 0.00 0.00 59 1008.7
20260504002505 51 0 0.0 0.0 0.00 0.00 0.00 59 1008.7
20260504002403 51 0 0.0 0.0 0.00 0.00 0.00 60 1008.7
20260504002204 51 0 0.0 0.0 0.00 0.00 0.00 59 1008.7
20260504002103 51 0 0.0 0.0 0.00 0.00 0.00 60 1008.7
20260504002005 51 0 0.0 0.0 0.00 0.00 0.00 60 1008.7
20260504001905 51 0 0.0 0.0 0.00 0.00 0.00 61 1008.7
20260504001803 51 0 0.0 0.0 0.00 0.00 0.00 61 1008.7
20260504001703 51 0 0.0 0.0 0.00 0.00 0.00 60 1008.8
20260504001617 51 0 0.0 0.0 0.00 0.00 0.00 60 1008.8
20260504001603 51 0 0.0 0.0 0.00 0.00 0.00 61 1008.7
20260504001504 51 0 0.0 0.0 0.00 0.00 0.00 61 1008.7
20260504001414 51 0 0.0 0.0 0.00 0.00 0.00 61 1008.8
20260504001103 51 0 0.0 0.0 0.00 0.00 0.00 62 1008.8
20260504001003 51 0 0.0 0.0 0.00 0.00 0.00 62 1008.8
20260504000903 51 0 0.0 0.0 0.00 0.00 0.00 62 1008.8
20260504000804 51 0 0.0 0.0 0.00 0.00 0.00 62 1008.8
20260504000703 51 0 0.0 0.0 0.00 0.00 0.00 63 1008.8
20260504000603 51 0 0.0 0.0 0.00 0.00 0.00 63 1008.8
20260504000505 51 0 0.0 0.0 0.00 0.00 0.00 62 1008.8
20260504000404 51 0 0.0 0.0 0.00 0.00 0.00 63 1008.8
20260504000304 51 0 0.0 0.0 0.00 0.00 0.00 64 1008.8
20260504000004 51 0 0.0 0.0 0.00 0.00 0.00 62 1008.8
20260503235905 51 0 0.0 0.0 0.00 0.00 0.00 63 1008.9
20260503235804 51 0 0.0 0.0 0.00 0.00 0.00 62 1009.0
20260503235705 51 0 0.0 0.0 0.00 0.00 0.00 63 1009.0
20260503235603 51 0 0.0 0.0 0.00 0.00 0.00 62 1008.9
20260503235503 51 0 0.0 0.0 0.00 0.00 0.00 63 1008.9
20260503235204 51 0 0.0 0.0 0.00 0.00 0.00 63 1009.0
20260503235103 51 0 0.0 0.0 0.00 0.00 0.00 63 1008.9
20260503235003 51 0 0.0 0.0 0.00 0.00 0.00 62 1009.0
20260503234904 51 0 0.0 0.0 0.00 0.00 0.00 62 1009.0
20260503234804 51 0 0.0 0.0 0.00 0.00 0.00 63 1009.0
20260503234704 51 0 0.0 0.0 0.00 0.00 0.00 64 1009.0
20260503234615 51 0 0.0 0.0 0.00 0.00 0.00 63 1009.0
20260503234504 51 0 0.0 0.0 0.00 0.00 0.00 62 1009.1
20260503234417 51 0 0.0 0.0 0.00 0.00 0.00 62 1009.1
20260503234305 51 0 0.0 0.0 0.00 0.00 0.00 61 1009.1
20260503234215 51 0 0.0 0.0 0.00 0.00 0.00 62 1009.1
20260503234106 51 0 0.0 0.0 0.00 0.00 0.00 62 1009.1
20260503233904 51 0 0.0 0.0 0.00 0.00 0.00 61 1009.0
20260503233805 51 0 0.0 0.0 0.00 0.00 0.00 62 1009.1
20260503233703 51 0 0.0 0.0 0.00 0.00 0.00 62 1009.2
20260503233604 51 0 0.0 0.0 0.00 0.00 0.00 61 1009.2
20260503233505 51 0 0.0 0.0 0.00 0.00 0.00 61 1009.0
20260503233404 51 0 0.0 0.0 0.00 0.00 0.00 61 1009.0
20260503233303 51 0 0.0 0.0 0.00 0.00 0.00 61 1009.0
20260503233204 51 0 0.0 0.0 0.00 0.00 0.00 61 1009.0
20260503233105 51 0 0.0 0.0 0.00 0.00 0.00 61 1009.0
20260503233005 51 0 0.0 0.0 0.00 0.00 0.00 61 1009.0
20260503232804 51 0 0.0 0.0 0.00 0.00 0.00 61 1008.9
20260503232703 51 0 0.0 0.0 0.00 0.00 0.00 61 1008.9
20260503232603 51 0 0.0 0.0 0.00 0.00 0.00 61 1008.9
20260503232504 52 0 0.0 0.0 0.00 0.00 0.00 61 1008.9
20260503232305 52 0 0.0 0.0 0.00 0.00 0.00 61 1009.0
20260503232203 52 0 0.0 0.0 0.00 0.00 0.00 60 1009.0
20260503232104 52 0 0.0 0.0 0.00 0.00 0.00 60 1009.0
20260503232005 52 0 0.0 0.0 0.00 0.00 0.00 60 1009.1
20260503231917 52 0 0.0 0.0 0.00 0.00 0.00 60 1009.1
20260503231905 52 0 0.0 0.0 0.00 0.00 0.00 60 1009.0
20260503231804 52 0 0.0 0.0 0.00 0.00 0.00 59 1009.0
20260503231604 52 0 0.0 0.0 0.00 0.00 0.00 59 1009.1
20260503231504 52 0 0.0 0.0 0.00 0.00 0.00 59 1009.0
20260503231404 52 0 0.0 0.0 0.00 0.00 0.00 58 1009.0
20260503231103 52 0 0.0 0.0 0.00 0.00 0.00 58 1009.0
20260503231005 52 0 0.0 0.0 0.00 0.00 0.00 58 1008.9
20260503230903 53 0 0.0 0.0 0.00 0.00 0.00 58 1009.0
20260503230804 53 0 0.0 0.0 0.00 0.00 0.00 58 1009.0
20260503230704 53 0 0.0 0.0 0.00 0.00 0.00 58 1009.0
20260503230603 53 0 0.0 0.0 0.00 0.00 0.00 58 1009.0
20260503230504 53 0 0.0 0.0 0.00 0.00 0.00 58 1008.9
20260503230304 53 0 0.0 0.0 0.00 0.00 0.00 56 1008.9
20260503230203 53 0 0.0 0.0 0.00 0.00 0.00 57 1008.9
20260503225905 53 0 0.0 0.0 0.00 0.00 0.00 56 1008.9
20260503225803 53 0 0.0 0.0 0.00 0.00 0.00 56 1008.9
20260503225704 53 0 0.0 0.0 0.00 0.00 0.00 56 1008.9
20260503225504 53 0 0.0 0.0 0.00 0.00 0.00 56 1008.9
20260503225405 53 0 0.0 0.0 0.00 0.00 0.00 56 1008.9
20260503225304 53 0 0.0 0.0 0.00 0.00 0.00 57 1008.9
20260503225204 53 0 0.0 0.0 0.00 0.00 0.00 57 1008.9
20260503225103 53 0 0.0 0.0 0.00 0.00 0.00 58 1008.9
20260503224905 52 0 0.0 0.0 0.00 0.00 0.00 58 1008.9
20260503224804 52 0 0.0 0.0 0.00 0.00 0.00 57 1009.0
20260503224705 52 0 0.0 0.0 0.00 0.00 0.00 58 1009.0
20260503224604 52 0 0.0 0.0 0.00 0.00 0.00 58 1009.0
20260503224404 52 0 0.0 0.0 0.00 0.00 0.00 58 1009.0
20260503224305 52 0 0.0 0.0 0.00 0.00 0.00 58 1009.0
20260503224103 52 0 0.0 0.0 0.00 0.00 0.00 58 1009.0
20260503224005 52 0 0.0 0.0 0.00 0.00 0.00 58 1009.0
20260503223903 52 0 0.0 0.0 0.00 0.00 0.00 58 1009.1
20260503223804 52 0 0.0 0.0 0.00 0.00 0.00 57 1009.1
20260503223704 52 0 0.0 0.0 0.00 0.00 0.00 57 1009.1
20260503223603 52 0 0.0 0.0 0.00 0.00 0.00 57 1009.2
20260503223504 52 0 0.0 0.0 0.00 0.00 0.00 57 1009.2
20260503223404 52 0 0.0 0.0 0.00 0.00 0.00 58 1009.2
20260503223303 52 0 0.0 0.0 0.00 0.00 0.00 57 1009.3
20260503223204 52 0 0.0 0.0 0.00 0.00 0.00 58 1009.3
20260503223005 52 0 0.0 0.0 0.00 0.00 0.00 57 1009.3
20260503222904 52 0 0.0 0.0 0.00 0.00 0.00 58 1009.3
20260503222804 52 0 0.0 0.0 0.00 0.00 0.00 57 1009.2
20260503222704 52 0 0.0 0.0 0.00 0.00 0.00 57 1009.2
20260503222605 52 0 0.0 0.0 0.00 0.00 0.00 58 1009.2
20260503222504 52 0 0.0 0.0 0.00 0.00 0.00 57 1009.2
20260503222405 52 0 0.0 0.0 0.00 0.00 0.00 58 1009.2
20260503222305 52 0 0.0 0.0 0.00 0.00 0.00 57 1009.1
20260503222203 53 0 0.0 0.0 0.00 0.00 0.00 56 1009.1
20260503222105 52 0 0.0 0.0 0.00 0.00 0.00 57 1009.0
20260503222004 53 0 0.0 0.0 0.00 0.00 0.00 56 1009.1
20260503221903 53 0 0.0 0.0 0.00 0.00 0.00 56 1009.1
20260503221804 53 0 0.0 0.0 0.00 0.00 0.00 56 1009.1
20260503221703 53 0 0.0 0.0 0.00 0.00 0.00 56 1009.1
20260503221604 53 0 0.0 0.0 0.00 0.00 0.00 56 1009.1
20260503221403 53 0 0.0 0.0 0.00 0.00 0.00 56 1009.2
20260503221304 53 0 0.0 0.0 0.00 0.00 0.00 56 1009.1
20260503221213 53 0 0.0 0.0 0.00 0.00 0.00 56 1009.1
20260503221204 53 0 0.0 0.0 0.00 0.00 0.00 56 1009.2
20260503221104 53 0 0.0 0.0 0.00 0.00 0.00 56 1009.2
20260503220904 53 0 0.0 0.0 0.00 0.00 0.00 56 1009.2
20260503220803 53 0 0.0 0.0 0.00 0.00 0.00 56 1009.2
20260503220716 53 0 0.0 0.0 0.00 0.00 0.00 56 1009.2
20260503220703 53 0 0.0 0.0 0.00 0.00 0.00 57 1009.1
20260503220604 53 0 0.0 0.0 0.00 0.00 0.00 56 1009.1
20260503220513 53 0 0.0 0.0 0.00 0.00 0.00 55 1009.0
20260503220403 53 0 0.0 0.0 0.00 0.00 0.00 56 1009.0
20260503220205 53 0 0.0 0.0 0.00 0.00 0.00 56 1009.0
20260503220105 53 0 0.0 0.0 0.00 0.00 0.00 56 1009.0
20260503220004 53 0 0.0 0.0 0.00 0.00 0.00 56 1009.0
20260503215904 53 0 0.0 0.0 0.00 0.00 0.00 56 1009.0
20260503215805 53 0 0.0 0.0 0.00 0.00 0.00 55 1009.0
20260503215703 53 0 0.0 0.0 0.00 0.00 0.00 56 1008.9
20260503215603 53 0 0.0 0.0 0.00 0.00 0.00 56 1008.9
20260503215403 53 0 0.0 0.0 0.00 0.00 0.00 54 1009.0
20260503215304 53 0 0.0 0.0 0.00 0.00 0.00 54 1009.0
20260503215204 53 0 0.0 0.0 0.00 0.00 0.00 54 1009.1
20260503215103 53 0 0.0 0.0 0.00 0.00 0.00 54 1009.1
20260503215003 53 0 0.0 0.0 0.00 0.00 0.00 55 1009.0
20260503214904 53 0 0.0 0.0 0.00 0.00 0.00 55 1008.9
20260503214804 53 0 0.0 0.0 0.00 0.00 0.00 54 1008.9
20260503214704 53 0 0.0 0.0 0.00 0.00 0.00 55 1008.9
20260503214603 53 0 0.0 0.0 0.00 0.00 0.00 54 1008.9
20260503214503 53 0 0.0 0.0 0.00 0.00 0.00 55 1009.0
20260503214414 53 0 0.0 0.0 0.00 0.00 0.00 55 1008.8
20260503214403 53 0 0.0 0.0 0.00 0.00 0.00 54 1008.8
20260503214303 53 0 0.0 0.0 0.00 0.00 0.00 55 1008.8
20260503214216 53 0 0.0 0.0 0.00 0.00 0.00 55 1008.9
20260503214104 53 0 0.0 0.0 0.00 0.00 0.00 54 1008.9
20260503213904 53 0 0.0 0.0 0.00 0.00 0.00 53 1008.9
20260503213804 53 0 0.0 0.0 0.00 0.00 0.00 54 1008.9
20260503213605 53 0 0.0 0.0 0.00 0.00 0.00 54 1008.7
20260503213504 53 0 0.0 0.0 0.00 0.00 0.00 54 1008.7
20260503213404 53 0 0.0 0.0 0.00 0.00 0.00 54 1008.7
20260503213305 53 0 0.0 0.0 0.00 0.00 0.00 55 1008.7
20260503213104 53 0 0.0 0.0 0.00 0.00 0.00 54 1008.9
20260503213003 53 0 0.0 0.0 0.00 0.00 0.00 54 1008.9
20260503212905 53 0 0.0 0.0 0.00 0.00 0.00 54 1008.8
20260503212804 53 0 0.0 0.0 0.00 0.00 0.00 54 1008.8
20260503212704 53 0 0.0 0.0 0.00 0.00 0.00 55 1008.8
20260503212603 53 0 0.0 0.0 0.00 0.00 0.00 56 1008.7
20260503212503 53 0 0.0 0.0 0.00 0.00 0.00 54 1008.7
20260503212404 53 0 0.0 0.0 0.00 0.00 0.00 55 1008.7
20260503212203 53 0 0.0 0.0 0.00 0.00 0.00 54 1008.9
20260503212104 53 0 0.0 0.0 0.00 0.00 0.00 54 1008.7
20260503212005 53 0 0.0 0.0 0.00 0.00 0.00 55 1008.7
20260503211904 53 0 0.0 0.0 0.00 0.00 0.00 55 1008.9
20260503211604 53 0 0.0 0.0 0.00 0.00 0.00 54 1008.9
20260503211505 52 0 0.0 0.0 0.00 0.00 0.00 55 1008.9
20260503211405 52 0 0.0 0.0 0.00 0.00 0.00 56 1009.0
20260503211303 52 0 0.0 0.0 0.00 0.00 0.00 56 1008.9
20260503211204 52 0 0.0 0.0 0.00 0.00 0.00 55 1008.9
20260503211103 53 0 0.0 0.0 0.00 0.00 0.00 55 1008.9
20260503211003 53 0 0.0 0.0 0.00 0.00 0.00 55 1008.8
20260503210903 53 0 0.0 0.0 0.00 0.00 0.00 55 1008.8
20260503210804 53 0 0.0 0.0 0.00 0.00 0.00 56 1008.9
20260503210704 53 0 0.0 0.0 0.00 0.00 0.00 55 1008.9
20260503210604 53 0 0.0 0.0 0.00 0.00 0.00 56 1008.9
20260503210504 53 0 0.0 0.0 0.00 0.00 0.00 56 1008.8
20260503210412 53 0 0.0 0.0 0.00 0.00 0.00 55 1008.8
20260503210404 52 0 0.0 0.0 0.00 0.00 0.00 55 1008.8
20260503210303 53 0 0.0 0.0 0.00 0.00 0.00 55 1008.9
20260503210005 53 0 0.0 0.0 0.00 0.00 0.00 55 1008.9
20260503205903 53 0 0.0 0.0 0.00 0.00 0.00 55 1008.9
20260503205805 53 0 0.0 0.0 0.00 0.00 0.00 56 1008.9
20260503205717 53 0 0.0 0.0 0.00 0.00 0.00 56 1008.9
20260503205705 53 0 0.0 0.0 0.00 0.00 0.00 55 1008.9
20260503205604 53 0 0.0 0.0 0.00 0.00 0.00 55 1009.0
20260503205405 53 0 0.0 0.0 0.00 0.00 0.00 55 1008.9
20260503205305 53 0 0.0 0.0 0.00 0.00 0.00 55 1008.9
20260503205203 53 0 0.0 0.0 0.00 0.00 0.00 56 1009.0
20260503205005 53 0 0.0 0.0 0.00 0.00 0.00 55 1009.0
20260503204903 53 0 0.0 0.0 0.00 0.00 0.00 54 1009.0
20260503204803 53 0 0.0 0.0 0.00 0.00 0.00 56 1009.2
20260503204705 53 0 0.0 0.0 0.00 0.00 0.00 54 1009.1
20260503204603 53 0 0.0 0.0 0.00 0.00 0.00 53 1009.1
20260503204504 53 0 0.0 0.0 0.00 0.00 0.00 54 1009.1
20260503204404 53 0 0.0 0.0 0.00 0.00 0.00 54 1009.1
20260503204303 54 0 0.0 0.0 0.00 0.00 0.00 55 1009.0
20260503204204 54 0 0.0 0.0 0.00 0.00 0.00 54 1009.0
20260503204103 54 0 0.0 0.0 0.00 0.00 0.00 52 1009.0
20260503204003 54 0 0.0 0.0 0.00 0.00 0.00 52 1009.0
20260503203804 54 0 0.0 0.0 0.00 0.00 0.00 52 1009.1
20260503203704 54 0 0.0 0.0 0.00 0.00 0.00 52 1009.1
20260503203605 54 0 0.0 0.0 0.00 0.00 0.00 52 1009.1
20260503203505 54 0 0.0 0.0 0.00 0.00 0.00 52 1009.1
20260503203404 54 0 0.0 0.0 0.00 0.00 0.00 51 1009.0
20260503203305 54 0 0.0 0.0 0.00 0.00 0.00 52 1009.0
20260503203204 54 0 0.0 0.0 0.00 0.00 0.00 51 1009.0
20260503203004 54 0 0.0 0.0 0.00 0.00 0.00 51 1009.1
20260503202904 55 0 0.0 0.0 0.00 0.00 0.00 52 1009.1
20260503202803 55 0 0.0 0.0 0.00 0.00 0.00 51 1009.1
20260503202704 54 0 0.0 0.0 0.00 0.00 0.00 53 1009.1
20260503202604 54 0 0.0 0.0 0.00 0.00 0.00 53 1009.1
20260503202503 54 0 0.0 0.0 0.00 0.00 0.00 54 1009.1
20260503202403 54 0 0.0 0.0 0.00 0.00 0.00 51 1009.2
20260503202304 54 0 0.0 0.0 0.00 0.00 0.00 51 1009.2
20260503202203 54 0 0.0 0.0 0.00 0.00 0.00 52 1009.2
20260503202104 54 0 0.0 0.0 0.00 0.00 0.00 53 1009.2
20260503202003 54 0 0.0 0.0 0.00 0.00 0.00 52 1009.3
20260503201914 54 0 0.0 0.0 0.00 0.00 0.00 52 1009.2
20260503201804 54 0 0.0 0.0 0.00 0.00 0.00 53 1009.2
20260503201604 53 0 0.0 0.0 0.00 0.00 0.00 52 1009.3
20260503201503 53 0 0.0 0.0 0.00 0.00 0.00 52 1009.3
20260503201403 53 0 0.0 0.0 0.00 0.00 0.00 52 1009.3
20260503201303 53 0 0.0 0.0 0.00 0.00 0.00 51 1009.3
20260503201203 53 0 0.0 0.0 0.00 0.00 0.00 53 1009.3
20260503201104 53 0 0.0 0.0 0.00 0.00 0.00 52 1009.4
20260503201004 53 0 0.0 0.0 0.00 0.00 0.00 52 1009.4
20260503200904 53 0 0.0 0.0 0.00 0.00 0.00 51 1009.4
20260503200805 54 0 0.0 0.0 0.00 0.00 0.00 51 1009.4
20260503200703 54 0 0.0 0.0 0.00 0.00 0.00 51 1009.3
20260503200616 54 0 0.0 0.0 0.00 0.00 0.00 50 1009.4
20260503200504 54 0 0.0 0.0 0.00 0.00 0.00 50 1009.4
20260503200304 54 0 0.0 0.0 0.00 0.00 0.00 48 1009.4
20260503200204 54 0 0.0 0.0 0.00 0.00 0.00 48 1009.4
20260503200104 55 0 0.0 0.0 0.00 0.00 0.00 49 1009.5
20260503200003 55 0 0.0 0.0 0.00 0.00 0.00 49 1009.5
20260503195916 55 0 0.0 0.0 0.00 0.00 0.00 49 1009.5
20260503195803 55 0 0.0 0.0 0.00 0.00 0.00 49 1009.5
20260503195603 55 0 0.0 0.0 0.00 0.00 0.00 51 1009.5
20260503195504 55 0 0.0 0.0 0.00 0.00 0.00 51 1009.5
20260503195403 54 0 0.0 0.0 0.00 0.00 0.00 51 1009.6
20260503195305 54 0 0.0 0.0 0.00 0.00 0.00 52 1009.6
20260503195204 54 0 0.0 0.0 0.00 0.00 0.00 51 1009.6
20260503195003 54 0 0.0 0.0 0.00 0.00 0.00 51 1009.6
20260503194904 54 0 0.0 0.0 0.00 0.00 0.00 51 1009.7
20260503194804 54 0 0.0 0.0 0.00 0.00 0.00 52 1009.6
20260503194714 54 0 0.0 0.0 0.00 0.00 0.00 51 1009.6
20260503194705 54 0 0.0 0.0 0.00 0.00 0.00 52 1009.6
20260503194604 53 0 0.0 0.0 0.00 0.00 0.00 51 1009.7
20260503194404 53 0 0.0 0.0 0.00 0.00 0.00 51 1009.6
20260503194305 53 0 0.0 0.0 0.00 0.00 0.00 51 1009.7
20260503194204 53 0 0.0 0.0 0.00 0.00 0.00 50 1009.7
20260503194104 53 0 0.0 0.0 0.00 0.00 0.00 51 1009.8
20260503194014 53 0 0.0 0.0 0.00 0.00 0.00 50 1009.8
20260503194004 53 0 0.0 0.0 0.00 0.00 0.00 50 1009.9
20260503193903 54 0 0.0 0.0 0.00 0.00 0.00 50 1009.9
20260503193817 54 0 0.0 0.0 0.00 0.00 0.00 50 1009.8
20260503193704 54 0 0.0 0.0 0.00 0.00 0.00 50 1009.8
20260503193517 54 0 0.0 0.0 0.00 0.00 0.00 50 1009.7
20260503193503 54 0 0.0 0.0 0.00 0.00 0.00 49 1009.7
20260503193403 54 0 0.0 0.0 0.00 0.00 0.00 49 1009.7
20260503193203 54 0 0.0 0.0 0.00 0.00 0.00 50 1009.9
20260503193103 54 0 0.0 0.0 0.00 0.00 0.00 50 1009.9
20260503193003 54 0 0.0 0.0 0.00 0.00 0.00 49 1010.0
20260503192903 54 0 0.0 0.0 0.00 0.00 0.00 49 1010.0
20260503192803 54 0 0.0 0.0 0.00 0.00 0.00 49 1010.0
20260503192703 54 0 0.0 0.0 0.00 0.00 0.00 49 1010.0
20260503192603 54 0 0.0 0.0 0.00 0.00 0.00 50 1010.0
20260503192504 54 0 0.0 0.0 0.00 0.00 0.00 47 1010.0
20260503192404 54 0 0.0 0.0 0.00 0.00 0.00 48 1010.0
20260503192204 55 0 0.0 0.0 0.00 0.00 0.00 49 1010.1
20260503192105 55 0 0.0 0.0 0.00 0.00 0.00 48 1010.1